CNW819 VHHH-ZSHC

Flight info

Callsign CNW819
Flight time N/A
Altitude 35000
Route LEKEN V601 DOTMI/K0863S1070 A470 UGAGO UGAGO13
Aircraft B752/M-SDE2E3FGHIJ3J4J7RWXY/LB1

Departure

Time N/A
Airport Hong Kong International Airport (VHHH)

Arrival

Time 2026-04-29 04:38
Airport Hangzhou Xiaoshan International Airport (ZSHC)
Time Latitude Longitude Altitude Speed Heading
2026-04-29 03:39 24.50226 117.93882 35016 ft 499 kts 46°
2026-04-29 03:40 24.54857 117.99480 34957 ft 498 kts 46°
2026-04-29 03:40 24.57196 118.02275 35061 ft 494 kts 44°
2026-04-29 03:40 24.59591 118.04985 35057 ft 496 kts 44°
2026-04-29 03:41 24.64423 118.10463 35058 ft 498 kts 44°
2026-04-29 03:41 24.69191 118.15880 35057 ft 495 kts 44°
2026-04-29 03:42 24.74008 118.21366 35055 ft 497 kts 44°
2026-04-29 03:42 24.78784 118.26811 35055 ft 498 kts 44°
2026-04-29 03:43 24.83615 118.32327 35061 ft 498 kts 44°
2026-04-29 03:43 24.88384 118.37779 35066 ft 498 kts 44°
2026-04-29 03:44 24.93188 118.43276 35065 ft 498 kts 44°
2026-04-29 03:44 24.97971 118.48756 35070 ft 497 kts 44°
2026-04-29 03:45 25.02765 118.54257 35076 ft 498 kts 44°
2026-04-29 03:45 25.07550 118.59753 35079 ft 499 kts 44°
2026-04-29 03:46 25.12285 118.65352 35078 ft 499 kts 46°
2026-04-29 03:46 25.16991 118.71030 35073 ft 500 kts 46°
2026-04-29 03:47 25.21657 118.76664 35066 ft 500 kts 46°
2026-04-29 03:47 25.26360 118.82349 35066 ft 500 kts 46°
2026-04-29 03:48 25.31034 118.88007 35069 ft 500 kts 46°
2026-04-29 03:48 25.35766 118.93677 35081 ft 501 kts 45°
2026-04-29 03:49 25.40527 118.99223 35088 ft 501 kts 45°
2026-04-29 03:49 25.45324 119.04826 35091 ft 501 kts 45°
2026-04-29 03:50 25.50128 119.10445 35086 ft 501 kts 45°
2026-04-29 03:50 25.54896 119.16029 35088 ft 502 kts 45°
2026-04-29 03:51 25.59708 119.21670 35084 ft 502 kts 44°
2026-04-29 03:51 25.64496 119.27290 35087 ft 504 kts 45°
2026-04-29 03:52 25.69296 119.32933 35088 ft 503 kts 44°
2026-04-29 03:52 25.74648 119.37746 35105 ft 496 kts 26°
2026-04-29 03:53 25.80984 119.40669 35097 ft 492 kts 14°
2026-04-29 03:53 25.87509 119.42999 35091 ft 494 kts 13°
2026-04-29 03:54 25.94046 119.45266 35086 ft 492 kts 13°
2026-04-29 03:54 26.00602 119.47513 35086 ft 493 kts 13°
2026-04-29 03:55 26.07187 119.49763 35092 ft 493 kts 13°
2026-04-29 03:55 26.13754 119.52003 35086 ft 493 kts 13°
2026-04-29 03:56 26.20311 119.54154 35088 ft 491 kts
2026-04-29 03:56 26.27066 119.54801 35092 ft 484 kts 356°
2026-04-29 03:57 26.33813 119.54936 35087 ft 484 kts 356°
2026-04-29 03:57 26.40554 119.55029 35090 ft 483 kts 356°
2026-04-29 03:58 26.47248 119.55077 35087 ft 483 kts 355°
2026-04-29 03:58 26.53983 119.55123 35091 ft 483 kts 355°
2026-04-29 03:59 26.60709 119.55166 35089 ft 484 kts 355°
2026-04-29 03:59 26.67446 119.55210 35078 ft 483 kts 355°
2026-04-29 04:00 26.74152 119.55252 35086 ft 482 kts 355°
2026-04-29 04:00 26.80881 119.55295 35081 ft 483 kts 355°
2026-04-29 04:01 26.87621 119.55338 35079 ft 483 kts 355°
2026-04-29 04:01 26.94350 119.55381 35081 ft 484 kts 355°
2026-04-29 04:02 27.01069 119.55424 35085 ft 484 kts 355°
2026-04-29 04:02 27.07813 119.55467 35088 ft 484 kts 355°
2026-04-29 04:03 27.14525 119.55510 35093 ft 484 kts 355°
2026-04-29 04:03 27.21269 119.55553 35105 ft 485 kts 355°
2026-04-29 04:04 27.28008 119.55589 35092 ft 485 kts 355°
2026-04-29 04:04 27.34771 119.55598 35107 ft 485 kts 355°
2026-04-29 04:05 27.41504 119.55608 35116 ft 487 kts 354°
2026-04-29 04:05 27.48303 119.55639 35119 ft 485 kts 355°
2026-04-29 04:06 27.55059 119.55676 35124 ft 488 kts 355°
2026-04-29 04:06 27.61825 119.55716 35120 ft 487 kts 355°
2026-04-29 04:07 27.68605 119.55754 35128 ft 488 kts 354°
2026-04-29 04:07 27.75426 119.55793 35131 ft 489 kts 354°
2026-04-29 04:08 27.82205 119.55833 35141 ft 489 kts 354°
2026-04-29 04:08 27.89032 119.55871 35147 ft 490 kts 354°
2026-04-29 04:09 27.95856 119.55945 35150 ft 489 kts 354°
2026-04-29 04:09 28.02648 119.56050 35155 ft 490 kts 354°
2026-04-29 04:10 28.09477 119.56155 35152 ft 492 kts 355°
2026-04-29 04:10 28.16308 119.56501 35151 ft 491 kts 356°
2026-04-29 04:11 28.23163 119.56881 35146 ft 494 kts 356°
2026-04-29 04:11 28.30028 119.57262 35165 ft 494 kts 356°
2026-04-29 04:12 28.36851 119.57640 35173 ft 493 kts 356°
2026-04-29 04:12 28.43733 119.58022 35177 ft 490 kts 356°
2026-04-29 04:13 28.50542 119.58428 35197 ft 491 kts 356°
2026-04-29 04:13 28.53970 119.58639 35040 ft 496 kts 356°
2026-04-29 04:13 28.57436 119.58851 34309 ft 500 kts 357°
2026-04-29 04:14 28.60863 119.59068 33487 ft 484 kts 357°
2026-04-29 04:14 28.64176 119.59274 32831 ft 476 kts 356°
2026-04-29 04:14 28.67506 119.59476 32199 ft 482 kts 357°
2026-04-29 04:14 28.70869 119.59682 31544 ft 486 kts 358°
2026-04-29 04:15 28.74256 119.59891 30887 ft 491 kts 357°
2026-04-29 04:15 28.77690 119.60104 30235 ft 494 kts 357°
2026-04-29 04:15 28.81098 119.60315 29607 ft 496 kts 358°
2026-04-29 04:15 28.84538 119.60532 28970 ft 493 kts 358°
2026-04-29 04:16 28.87970 119.60747 28380 ft 491 kts 358°
2026-04-29 04:16 28.91364 119.60959 27795 ft 489 kts 359°
2026-04-29 04:16 28.94702 119.61167 27218 ft 484 kts 358°
2026-04-29 04:16 28.98057 119.61377 26621 ft 480 kts 358°
2026-04-29 04:17 29.01407 119.61586 26023 ft 474 kts 358°
2026-04-29 04:17 29.04635 119.61788 25452 ft 467 kts 358°
2026-04-29 04:17 29.07851 119.61989 24882 ft 463 kts 358°
2026-04-29 04:17 29.11080 119.62186 24316 ft 459 kts 358°
2026-04-29 04:18 29.14273 119.62381 23762 ft 455 kts 358°
2026-04-29 04:18 29.17397 119.62570 23242 ft 451 kts 358°
2026-04-29 04:18 29.20527 119.62762 22720 ft 446 kts 358°
2026-04-29 04:18 29.23601 119.62950 22207 ft 441 kts 358°
2026-04-29 04:19 29.26645 119.63135 21694 ft 438 kts 358°
2026-04-29 04:19 29.29684 119.63321 21160 ft 435 kts 358°
2026-04-29 04:19 29.32701 119.63506 20629 ft 430 kts 358°
2026-04-29 04:19 29.35649 119.63686 20104 ft 427 kts 358°
2026-04-29 04:20 29.38626 119.63868 19568 ft 427 kts 358°
2026-04-29 04:20 29.41557 119.64047 19023 ft 421 kts 358°
2026-04-29 04:20 29.44467 119.64226 18472 ft 416 kts 358°
2026-04-29 04:20 29.47351 119.64401 17931 ft 413 kts 358°
2026-04-29 04:21 29.50228 119.64580 17381 ft 409 kts 358°
2026-04-29 04:21 29.53041 119.64751 16837 ft 405 kts 358°
2026-04-29 04:21 29.55855 119.64901 16333 ft 402 kts 356°
2026-04-29 04:21 29.58626 119.64961 15856 ft 400 kts 356°
2026-04-29 04:22 29.61409 119.65028 15324 ft 398 kts 356°
2026-04-29 04:22 29.64153 119.65142 14805 ft 394 kts 359°
2026-04-29 04:22 29.66901 119.65346 14366 ft 393 kts 359°
2026-04-29 04:22 29.69612 119.65535 13874 ft 393 kts 359°
2026-04-29 04:23 29.72335 119.65725 13375 ft 388 kts 359°
2026-04-29 04:23 29.75033 119.65911 12906 ft 387 kts 360°
2026-04-29 04:23 29.77698 119.66080 12381 ft 384 kts 359°
2026-04-29 04:23 29.80376 119.66209 11938 ft 382 kts 359°
2026-04-29 04:24 29.83003 119.66350 11472 ft 380 kts
2026-04-29 04:24 29.85615 119.66862 10962 ft 383 kts 17°
2026-04-29 04:24 29.88039 119.68168 10440 ft 382 kts 35°
2026-04-29 04:24 29.89994 119.70106 9938 ft 362 kts 52°
2026-04-29 04:25 29.91362 119.72396 9537 ft 337 kts 63°
2026-04-29 04:25 29.92494 119.74677 9134 ft 317 kts 62°
2026-04-29 04:25 29.93566 119.76807 8821 ft 298 kts 63°
2026-04-29 04:25 29.94562 119.78791 8556 ft 277 kts 62°
2026-04-29 04:26 29.95514 119.80693 8285 ft 273 kts 62°
2026-04-29 04:26 29.96459 119.82584 8060 ft 274 kts 62°
2026-04-29 04:26 29.97412 119.84490 7808 ft 269 kts 62°
2026-04-29 04:26 29.98340 119.86345 7572 ft 265 kts 62°
2026-04-29 04:27 29.99245 119.88157 7341 ft 257 kts 62°
2026-04-29 04:27 30.00125 119.89919 7116 ft 253 kts 60°
2026-04-29 04:27 30.00992 119.91657 6896 ft 250 kts 60°
2026-04-29 04:27 30.01855 119.93383 6703 ft 246 kts 61°
2026-04-29 04:28 30.02700 119.95081 6484 ft 236 kts 60°
2026-04-29 04:28 30.03483 119.96648 6268 ft 219 kts 60°
2026-04-29 04:28 30.04210 119.98106 6091 ft 201 kts 59°
2026-04-29 04:28 30.04906 119.99503 5944 ft 204 kts 59°
2026-04-29 04:29 30.05624 120.00943 5855 ft 209 kts 59°
2026-04-29 04:29 30.06348 120.02393 5693 ft 207 kts 61°
2026-04-29 04:29 30.07059 120.03824 5496 ft 205 kts 60°
2026-04-29 04:29 30.07768 120.05248 5322 ft 205 kts 60°
2026-04-29 04:30 30.08174 120.06066 5235 ft 203 kts 60°
2026-04-29 04:30 30.08878 120.07480 5075 ft 204 kts 59°
2026-04-29 04:30 30.10193 120.10233 4686 ft 192 kts 63°
2026-04-29 04:31 30.10788 120.11610 4478 ft 189 kts 62°
2026-04-29 04:31 30.11384 120.12968 4224 ft 193 kts 62°
2026-04-29 04:31 30.11986 120.14332 3985 ft 187 kts 62°
2026-04-29 04:31 30.12564 120.15639 3910 ft 180 kts 62°
2026-04-29 04:32 30.13146 120.16948 3932 ft 186 kts 62°
2026-04-29 04:32 30.13743 120.18285 3920 ft 188 kts 62°
2026-04-29 04:32 30.14338 120.19621 3922 ft 187 kts 61°
2026-04-29 04:32 30.14940 120.20965 3816 ft 190 kts 62°
2026-04-29 04:33 30.15542 120.22311 3588 ft 189 kts 61°
2026-04-29 04:33 30.16141 120.23652 3331 ft 186 kts 61°
2026-04-29 04:33 30.16734 120.24976 3097 ft 184 kts 61°
2026-04-29 04:33 30.17321 120.26289 2855 ft 184 kts 60°
2026-04-29 04:34 30.17913 120.27615 2609 ft 186 kts 60°
2026-04-29 04:34 30.18504 120.28934 2359 ft 185 kts 61°
2026-04-29 04:34 30.19086 120.30238 2065 ft 179 kts 60°
2026-04-29 04:34 30.19622 120.31444 1851 ft 156 kts 60°
2026-04-29 04:35 30.20084 120.32479 1651 ft 134 kts 60°
2026-04-29 04:35 30.20502 120.33418 1467 ft 133 kts 60°
2026-04-29 04:35 30.20941 120.34392 1321 ft 138 kts 60°
2026-04-29 04:35 30.21384 120.35389 1120 ft 140 kts 60°
2026-04-29 04:36 30.21818 120.36372 909 ft 138 kts 61°
2026-04-29 04:36 30.22241 120.37371 769 ft 136 kts 60°
2026-04-29 04:36 30.22692 120.38329 510 ft 135 kts 59°
2026-04-29 04:36 30.23138 120.39304 339 ft 139 kts 61°
2026-04-29 04:37 30.23585 120.40286 168 ft 139 kts 61°
2026-04-29 04:37 30.24019 120.41282 49 ft 133 kts 60°
2026-04-29 04:37 30.24416 120.42149 32 ft 113 kts 66°
2026-04-29 04:37 30.24684 120.42778 30 ft 61 kts 66°
2026-04-29 04:38 30.24723 120.43115 30 ft 25 kts 89°
2026-04-29 04:38 30.24723 120.43279 30 ft 15 kts 89°
2026-04-29 04:38 30.24675 120.43366 30 ft 13 kts 152°
2026-04-29 04:38 30.24604 120.43417 30 ft 10 kts 120°
2026-04-29 04:39 30.24610 120.43487 30 ft 7 kts 87°
2026-04-29 04:39 30.24581 120.43539 30 ft 5 kts 136°
2026-04-29 04:39 30.24575 120.43572 30 ft 10 kts 81°
2026-04-29 04:39 30.24611 120.43663 30 ft 12 kts 63°
2026-04-29 04:40 30.24649 120.43750 30 ft 11 kts 63°
2026-04-29 04:40 30.24684 120.43829 30 ft 10 kts 63°
2026-04-29 04:40 30.24717 120.43903 30 ft 9 kts 62°
2026-04-29 04:40 30.24747 120.43971 30 ft 9 kts 63°
2026-04-29 04:41 30.24774 120.44032 30 ft 8 kts 63°
2026-04-29 04:41 30.24810 120.44051 30 ft 6 kts 349°
2026-04-29 04:41 30.24838 120.44035 30 ft 2 kts 332°
2026-04-29 04:41 30.24851 120.44027 30 ft 0 kts 333°
2026-04-29 04:42 30.24849 120.44028 30 ft 1 kts 334°
2026-04-29 04:42 30.24851 120.44027 30 ft 0 kts 334°